STARLINK-32415, 61861

Orbit data source: Space-Track

STARLINK-32415, 61861 is a payload satellite owned by SpaceX/Seattle (US) in LEO that was launched on Thu, 07 Nov 2024 UTC via an FALCON 9 launch vehicle from the Air Force Eastern Test Range (AFETR). Payload-class satellites include a variety of spacecraft equipped with specific instruments for various scientific and technological missions. These include communications satellites like Starlink; space stations such as the ISS; scientific satellites like the Hubble; Earth observation satellites from companies like Planet Labs, Umbra, and HawkEye 360; GPS; miniature CubeSats for education and research; and military/defense satellites.

Loading next visibility...
Identifier
61861, 2024-202S
Orbit
LEO
Country
Flag of USUS
Related business
Manufacturer
SpaceX/Seattle
Mission
Operational Commercial Communications
Bus & Motor
STARLINK V2M, Unknown motor
Mass
730 kg wet, ~700 kg dry
Launch date (UTC)
2024-11-07 (2 years ago)
Launch vehicle
FALCON 9
Launch site
Air Force Eastern Test Range (AFETR)
Object type
Payload
Rocket body
Debris
Shape & HBR
Box + 2 Pan, 17.7 m
Radar Cross Section
33.884 m², Large (>1 m²)

Expand to show TLE details & history
Last TLE update: 20 hours ago

TLE from 20 hours ago
0 STARLINK-32415
1 61861U 24202S   26171.00203531  .00005296  00000-0  20183-3 0  9992
2 61861  43.0035  20.2972 0001295 281.4100  78.6606 15.27583647 90970
Epoch: 2026-06-20T00:02Z
TLE epoch observation values (Epoch: 2026-06-20T00:02:55.850Z)
Latitude
-0.00005°
Longitude
111.34153°
Altitude
482.639 km
Speed
7.626 km/s
True Right ascension
01h 21m 11s
True Declination
0° 00' 00"
Sunlit
Object was in daylight at epoch
Visualization orbit readout
Latitude
Unknown
Longitude
Unknown
Altitude
Unknown
Speed
Unknown
Apparent Right ascension
Unknown
Apparent Declination
Unknown
Sunlit
N/A
Visualization observer readout
Local Sidereal Time
07:22:59
Azimuth
Unknown
Elevation
Unknown
Doppler factor
Unknown
Orbital elements
Apogee altitude
485.872 km
Perigee altitude
484.094 km
Semi-major axis
6,863.12 km
Eccentricity
0.00013
Inclination
43.0035°
RAAN
20.2972°
Arg. of periapsis
281.41°
True anomaly
78.67515°
Mean anomaly
78.6606°
Eccentric anomaly
78.66788°
Mean motion
3.81734 °/min
Orbital period
94.31 mins
BSTAR
0.00020183
Loading maneuver chart data...
Computing Atmospheric mass density...
Loading historical data...
Loading historical data...
Loading historical data...
Loading historical data...
Loading historical data...
Loading historical data...
Loading historical data...

Documentation

Showing up to 5 results
|